This is the latest recevied weather packets stored in our database for station/object N2XP-3. If no packets are shown the sender has not sent any weather packets the latest 10 day(s).
| Time | Temp. | Humidity | Pressure | Rain* | Wind** | Luminosity | Snow |
|---|---|---|---|---|---|---|---|
| 1777412987 | 17.22° C | 50% | 1015.8 hPa | 0 mm | 0.89 m/s, 252° | - | - |
| 1777412843 | 17.22° C | 50% | 1015.8 hPa | 0 mm | 0.89 m/s, 252° | - | - |
| 1777412673 | 17.22° C | 50% | 1015.9 hPa | 0 mm | 0.89 m/s, 259° | - | - |
| 1777412544 | 17.22° C | 50% | 1015.9 hPa | 0 mm | 0.89 m/s, 259° | - | - |
| 1777412401 | 17.22° C | 51% | 1016 hPa | 0 mm | 0 m/s | - | - |
| 1777412240 | 17.22° C | 51% | 1016 hPa | 0 mm | 0 m/s | - | - |
| 1777412065 | 17.22° C | 50% | 1016 hPa | 0 mm | 1.79 m/s, 181° | - | - |
| 1777411939 | 17.22° C | 50% | 1016 hPa | 0 mm | 1.79 m/s, 181° | - | - |
| 1777411638 | 17.22° C | 50% | 1016 hPa | 0 mm | 0.89 m/s, 271° | - | - |
| 1777411510 | 17.22° C | 51% | 1015.9 hPa | 0 mm | 0.45 m/s, 214° | - | - |
| 1777411332 | 17.22° C | 51% | 1015.9 hPa | 0 mm | 0.45 m/s, 214° | - | - |
| 1777410732 | 16.67° C | 51% | 1016 hPa | 0 mm | 0.45 m/s, 274° | - | - |
| 1777410131 | 16.67° C | 50% | 1016 hPa | 0 mm | 1.34 m/s, 307° | - | - |
| 1777409831 | 16.67° C | 51% | 1016.1 hPa | 0 mm | 0 m/s | - | - |
| 1777409523 | 17.22° C | 51% | 1016.1 hPa | 0 mm | 0.45 m/s, 23° | - | - |
| 1777409224 | 17.22° C | 49% | 1016.1 hPa | 0 mm | 1.79 m/s, 229° | - | - |
| 1777409085 | 17.22° C | 49% | 1016.1 hPa | 0 mm | 0 m/s | - | - |
| 1777408973 | 17.22° C | 49% | 1016.1 hPa | 0 mm | 0 m/s | - | - |
| 1777408922 | 17.22° C | 49% | 1016.1 hPa | 0 mm | 0 m/s | - | - |
| 1777408311 | 17.78° C | 49% | 1016.1 hPa | 0 mm | 1.34 m/s, 242° | - | - |
| 1777408009 | 17.78° C | 49% | 1016 hPa | 0 mm | 0 m/s | - | - |
| 1777407821 | 17.78° C | 48% | 1016 hPa | 0 mm | 0.89 m/s, 217° | - | - |
| 1777407700 | 17.78° C | 48% | 1016 hPa | 0 mm | 0.89 m/s, 217° | - | - |
| 1777407397 | 17.78° C | 48% | 1016 hPa | 0 mm | 0 m/s | - | - |
| 1777407098 | 18.33° C | 48% | 1016 hPa | 0 mm | 0 m/s | - | - |
* Rain latest hour (hover to see other rain measurements)
** Current wind speed in m/s (hover to see current wind gust speed)